TimeEDT,TemperatureF,Dew PointF,Humidity,Sea Level PressureIn,VisibilityMPH,Wind Direction,Wind SpeedMPH,Gust SpeedMPH,PrecipitationIn,Events,Conditions,WindDirDegrees,DateUTC
12:53 AM,39.9,39.0,97,30.32,10.0,Calm,Calm,-,N/A,,Clear,0,2013-10-10 04:53:00
1:53 AM,37.0,37.0,100,30.31,7.0,Calm,Calm,-,N/A,,Clear,0,2013-10-10 05:53:00
2:53 AM,37.9,37.0,97,30.30,10.0,Calm,Calm,-,N/A,,Clear,0,2013-10-10 06:53:00
3:53 AM,37.0,36.0,96,30.30,10.0,Calm,Calm,-,N/A,,Clear,0,2013-10-10 07:53:00
4:53 AM,37.0,36.0,96,30.31,10.0,Calm,Calm,-,N/A,,Clear,0,2013-10-10 08:53:00
5:53 AM,36.0,36.0,100,30.31,10.0,Calm,Calm,-,N/A,,Clear,0,2013-10-10 09:53:00
6:53 AM,37.0,36.0,96,30.32,10.0,Calm,Calm,-,N/A,,Clear,0,2013-10-10 10:53:00
7:53 AM,37.0,36.0,96,30.33,10.0,Calm,Calm,-,N/A,,Clear,0,2013-10-10 11:53:00
8:53 AM,41.0,39.9,96,30.33,10.0,Calm,Calm,-,N/A,,Clear,0,2013-10-10 12:53:00
9:53 AM,48.9,45.0,86,30.32,10.0,Calm,Calm,-,N/A,,Clear,0,2013-10-10 13:53:00
10:53 AM,53.1,44.1,71,30.31,10.0,Calm,Calm,-,N/A,,Clear,0,2013-10-10 14:53:00
11:53 AM,57.9,45.0,62,30.30,10.0,Calm,Calm,-,N/A,,Clear,0,2013-10-10 15:53:00
12:53 PM,59.0,46.0,62,30.28,10.0,SE,5.8,-,N/A,,Clear,140,2013-10-10 16:53:00
1:53 PM,59.0,46.9,64,30.26,10.0,SE,3.5,-,N/A,,Clear,130,2013-10-10 17:53:00
2:53 PM,60.1,46.9,62,30.25,10.0,Calm,Calm,-,N/A,,Clear,0,2013-10-10 18:53:00
3:53 PM,61.0,45.0,56,30.24,10.0,Calm,Calm,-,N/A,,Clear,0,2013-10-10 19:53:00
4:53 PM,60.1,48.0,64,30.23,10.0,ESE,3.5,-,N/A,,Clear,110,2013-10-10 20:53:00
5:53 PM,54.0,48.9,83,30.22,10.0,Calm,Calm,-,N/A,,Clear,0,2013-10-10 21:53:00
6:53 PM,50.0,48.0,93,30.21,10.0,Calm,Calm,-,N/A,,Clear,0,2013-10-10 22:53:00
7:53 PM,48.9,46.9,93,30.20,10.0,Calm,Calm,-,N/A,,Clear,0,2013-10-10 23:53:00
8:53 PM,48.0,46.9,96,30.20,10.0,Calm,Calm,-,N/A,,Clear,0,2013-10-11 00:53:00
9:53 PM,46.9,46.0,97,30.21,10.0,Calm,Calm,-,N/A,,Clear,0,2013-10-11 01:53:00
10:53 PM,45.0,45.0,100,30.20,10.0,SW,4.6,-,N/A,,Clear,220,2013-10-11 02:53:00
11:53 PM,44.1,44.1,100,30.19,9.0,Calm,Calm,-,N/A,,Clear,0,2013-10-11 03:53:00